Time,TemperatureF,DewpointF,PressureIn,WindDirection,WindDirectionDegrees,WindSpeedMPH,WindSpeedGustMPH,Humidity,HourlyPrecipIn,Conditions,Clouds,dailyrainin,SoftwareType,DateUTC
2013-08-02 00:00:00,60.9,50.6,29.44,NE,36,0.0,0.0,69,0.00,,,0.00,Weather View 32 v70,2013-08-02 08:00:00,
2013-08-02 00:29:00,58.4,52.9,29.43,NE,36,0.0,0.0,82,0.00,,,0.00,Weather View 32 v70,2013-08-02 08:29:00,
2013-08-02 00:58:00,56.6,54.9,29.44,NE,36,0.0,0.0,94,0.00,,,0.00,Weather View 32 v70,2013-08-02 08:58:00,
2013-08-02 01:00:00,56.6,54.9,29.44,NE,36,0.0,0.0,94,0.00,,,0.00,Weather View 32 v70,2013-08-02 09:00:00,
2013-08-02 01:28:00,55.3,54.2,29.44,NE,36,0.0,0.0,96,0.00,,,0.00,Weather View 32 v70,2013-08-02 09:28:00,
2013-08-02 01:58:00,54.1,53.0,29.44,NE,36,0.0,0.0,96,0.00,,,0.00,Weather View 32 v70,2013-08-02 09:58:00,
2013-08-02 02:00:00,54.1,53.0,29.44,NE,36,0.0,0.0,96,0.00,,,0.00,Weather View 32 v70,2013-08-02 10:00:00,
2013-08-02 02:28:00,53.5,52.9,29.44,NE,36,0.0,0.0,98,0.00,,,0.00,Weather View 32 v70,2013-08-02 10:28:00,
2013-08-02 02:58:00,52.1,49.8,29.44,NE,36,0.0,0.0,92,0.00,,,0.00,Weather View 32 v70,2013-08-02 10:58:00,
2013-08-02 03:00:00,52.1,49.8,29.44,NE,36,0.0,0.0,92,0.00,,,0.00,Weather View 32 v70,2013-08-02 11:00:00,
2013-08-02 03:28:00,51.1,49.4,29.44,NE,36,0.0,0.0,94,0.00,,,0.00,Weather View 32 v70,2013-08-02 11:28:00,
2013-08-02 03:58:00,50.2,48.5,29.44,NE,36,0.0,0.0,94,0.00,,,0.00,Weather View 32 v70,2013-08-02 11:58:00,
2013-08-02 04:00:00,50.2,48.5,29.44,NE,36,0.0,0.0,94,0.00,,,0.00,Weather View 32 v70,2013-08-02 12:00:00,
2013-08-02 04:28:00,49.3,47.6,29.45,NE,36,0.0,2.0,94,0.00,,,0.00,Weather View 32 v70,2013-08-02 12:28:00,
2013-08-02 04:57:00,48.1,47.0,29.46,NE,35,0.0,2.0,96,0.00,,,0.00,Weather View 32 v70,2013-08-02 12:57:00,
2013-08-02 05:00:00,48.1,47.0,29.46,NE,35,0.0,2.0,96,0.00,,,0.00,Weather View 32 v70,2013-08-02 13:00:00,
2013-08-02 05:28:00,47.6,47.1,29.46,NE,36,0.0,1.0,98,0.00,,,0.00,Weather View 32 v70,2013-08-02 13:28:00,
2013-08-02 05:58:00,48.2,47.9,29.46,NE,36,0.0,0.0,99,0.00,,,0.00,Weather View 32 v70,2013-08-02 13:58:00,
2013-08-02 06:00:00,48.2,47.9,29.46,NE,36,0.0,0.0,99,0.00,,,0.00,Weather View 32 v70,2013-08-02 14:00:00,
2013-08-02 06:28:00,48.7,47.3,29.47,NE,36,0.0,0.0,95,0.00,,,0.00,Weather View 32 v70,2013-08-02 14:28:00,
2013-08-02 06:58:00,51.1,50.3,29.46,NE,36,0.0,0.0,97,0.00,,,0.00,Weather View 32 v70,2013-08-02 14:58:00,
2013-08-02 07:00:00,51.1,50.3,29.46,NE,36,0.0,0.0,97,0.00,,,0.00,Weather View 32 v70,2013-08-02 15:00:00,
2013-08-02 07:28:00,56.5,54.2,29.46,NE,36,0.0,0.0,92,0.00,,,0.00,Weather View 32 v70,2013-08-02 15:28:00,
2013-08-02 07:58:00,62.0,54.7,29.46,NE,36,0.0,0.0,77,0.00,,,0.00,Weather View 32 v70,2013-08-02 15:58:00,
2013-08-02 08:00:00,62.0,54.7,29.46,NE,36,0.0,0.0,77,0.00,,,0.00,Weather View 32 v70,2013-08-02 16:00:00,
2013-08-02 08:28:00,63.3,55.2,29.47,NE,36,0.0,0.0,75,0.00,,,0.00,Weather View 32 v70,2013-08-02 16:28:00,
2013-08-02 08:58:00,66.7,54.9,29.47,NE,36,0.0,0.0,66,0.00,,,0.00,Weather View 32 v70,2013-08-02 16:58:00,
2013-08-02 09:00:00,66.7,54.9,29.47,NE,36,0.0,0.0,66,0.00,,,0.00,Weather View 32 v70,2013-08-02 17:00:00,
2013-08-02 09:28:00,69.4,55.8,29.48,NNE,28,0.0,0.0,62,0.00,,,0.00,Weather View 32 v70,2013-08-02 17:28:00,
2013-08-02 09:57:00,71.5,54.9,29.48,NNE,28,0.0,0.0,56,0.00,,,0.00,Weather View 32 v70,2013-08-02 17:57:00,
2013-08-02 10:00:00,71.5,54.9,29.48,NNE,28,0.0,0.0,56,0.00,,,0.00,Weather View 32 v70,2013-08-02 18:00:00,
2013-08-02 10:29:00,72.7,54.5,29.48,WNW,294,0.0,0.0,53,0.00,,,0.00,Weather View 32 v70,2013-08-02 18:29:00,
2013-08-02 10:58:00,74.2,51.4,29.48,West,281,0.0,0.0,45,0.00,,,0.00,Weather View 32 v70,2013-08-02 18:58:00,
2013-08-02 11:00:00,74.2,51.4,29.48,West,281,0.0,0.0,45,0.00,,,0.00,Weather View 32 v70,2013-08-02 19:00:00,
2013-08-02 11:28:00,75.2,49.8,29.48,WSW,255,0.0,6.0,41,0.00,,,0.00,Weather View 32 v70,2013-08-02 19:28:00,
2013-08-02 11:58:00,75.7,49.6,29.48,SW,235,0.0,6.0,40,0.00,,,0.00,Weather View 32 v70,2013-08-02 19:58:00,
2013-08-02 12:00:00,75.7,49.6,29.48,SW,235,0.0,6.0,40,0.00,,,0.00,Weather View 32 v70,2013-08-02 20:00:00,
2013-08-02 12:28:00,76.3,52.1,29.47,WSW,255,0.0,6.0,43,0.00,,,0.00,Weather View 32 v70,2013-08-02 20:28:00,
2013-08-02 12:58:00,77.6,52.0,29.47,West,262,0.0,6.0,41,0.00,,,0.00,Weather View 32 v70,2013-08-02 20:58:00,
2013-08-02 13:00:00,77.6,52.0,29.47,West,262,0.0,6.0,41,0.00,,,0.00,Weather View 32 v70,2013-08-02 21:00:00,
2013-08-02 13:28:00,78.8,53.7,29.47,West,264,0.0,7.0,42,0.00,,,0.00,Weather View 32 v70,2013-08-02 21:28:00,
2013-08-02 13:58:00,80.0,49.0,29.46,West,269,0.0,8.0,34,0.00,,,0.00,Weather View 32 v70,2013-08-02 21:58:00,
2013-08-02 14:00:00,80.0,49.0,29.46,West,269,0.0,8.0,34,0.00,,,0.00,Weather View 32 v70,2013-08-02 22:00:00,
2013-08-02 14:28:00,79.7,48.8,29.46,WSW,242,0.0,8.0,34,0.00,,,0.00,Weather View 32 v70,2013-08-02 22:28:00,
2013-08-02 14:58:00,80.3,46.8,29.45,SW,229,0.0,6.0,31,0.00,,,0.00,Weather View 32 v70,2013-08-02 22:58:00,
2013-08-02 15:00:00,80.3,47.7,29.45,SW,229,0.0,6.0,32,0.00,,,0.00,Weather View 32 v70,2013-08-02 23:00:00,
2013-08-02 15:28:00,81.1,46.6,29.44,SW,228,4.0,12.0,30,0.00,,,0.00,Weather View 32 v70,2013-08-02 23:28:00,
2013-08-02 15:58:00,81.9,48.2,29.44,WSW,254,0.0,12.0,31,0.00,,,0.00,Weather View 32 v70,2013-08-02 23:58:00,
2013-08-02 16:00:00,81.9,48.2,29.44,WSW,254,0.0,12.0,31,0.00,,,0.00,Weather View 32 v70,2013-08-03 00:00:00,
2013-08-02 16:28:00,82.3,47.7,29.43,SW,233,0.0,7.0,30,0.00,,,0.00,Weather View 32 v70,2013-08-03 00:28:00,
2013-08-02 16:58:00,82.8,47.2,29.42,WSW,239,0.0,7.0,29,0.00,,,0.00,Weather View 32 v70,2013-08-03 00:58:00,
2013-08-02 17:00:00,82.8,47.2,29.42,WSW,239,0.0,7.0,29,0.00,,,0.00,Weather View 32 v70,2013-08-03 01:00:00,
2013-08-02 17:28:00,83.2,48.4,29.42,SW,230,0.0,7.0,30,0.00,,,0.00,Weather View 32 v70,2013-08-03 01:28:00,
2013-08-02 17:58:00,83.7,48.0,29.41,West,281,0.0,7.0,29,0.00,,,0.00,Weather View 32 v70,2013-08-03 01:58:00,
2013-08-02 18:00:00,83.7,48.0,29.41,West,281,0.0,7.0,29,0.00,,,0.00,Weather View 32 v70,2013-08-03 02:00:00,
2013-08-02 18:28:00,82.8,47.2,29.40,WSW,242,0.0,7.0,29,0.00,,,0.00,Weather View 32 v70,2013-08-03 02:28:00,
2013-08-02 18:58:00,80.3,48.5,29.40,WSW,246,0.0,6.0,33,0.00,,,0.00,Weather View 32 v70,2013-08-03 02:58:00,
2013-08-02 19:00:00,80.3,48.5,29.40,WSW,246,0.0,6.0,33,0.00,,,0.00,Weather View 32 v70,2013-08-03 03:00:00,
2013-08-02 19:28:00,79.9,51.9,29.39,WSW,246,0.0,0.0,38,0.00,,,0.00,Weather View 32 v70,2013-08-03 03:28:00,
2013-08-02 19:58:00,79.6,53.1,29.39,WSW,246,0.0,0.0,40,0.00,,,0.00,Weather View 32 v70,2013-08-03 03:58:00,
2013-08-02 20:00:00,79.5,54.3,29.39,WSW,246,0.0,0.0,42,0.00,,,0.00,Weather View 32 v70,2013-08-03 04:00:00,
2013-08-02 20:28:00,77.8,54.7,29.38,WSW,246,0.0,0.0,45,0.00,,,0.00,Weather View 32 v70,2013-08-03 04:28:00,
2013-08-02 20:58:00,75.1,55.1,29.37,WSW,246,0.0,0.0,50,0.00,,,0.00,Weather View 32 v70,2013-08-03 04:58:00,
2013-08-02 21:00:00,75.1,55.1,29.37,WSW,246,0.0,0.0,50,0.00,,,0.00,Weather View 32 v70,2013-08-03 05:00:00,
2013-08-02 21:28:00,72.9,56.2,29.37,WSW,246,0.0,0.0,56,0.00,,,0.00,Weather View 32 v70,2013-08-03 05:28:00,
2013-08-02 21:58:00,70.5,55.4,29.36,WSW,246,0.0,0.0,59,0.00,,,0.00,Weather View 32 v70,2013-08-03 05:58:00,
2013-08-02 22:00:00,70.5,55.4,29.36,WSW,246,0.0,0.0,59,0.00,,,0.00,Weather View 32 v70,2013-08-03 06:00:00,
2013-08-02 22:28:00,67.7,55.0,29.36,WSW,246,0.0,0.0,64,0.00,,,0.00,Weather View 32 v70,2013-08-03 06:28:00,
2013-08-02 22:58:00,64.7,54.7,29.35,WSW,246,0.0,0.0,70,0.00,,,0.00,Weather View 32 v70,2013-08-03 06:58:00,
2013-08-02 23:00:00,64.7,54.7,29.35,WSW,246,0.0,0.0,70,0.00,,,0.00,Weather View 32 v70,2013-08-03 07:00:00,
2013-08-02 23:28:00,62.6,54.9,29.34,WSW,246,0.0,0.0,76,0.00,,,0.00,Weather View 32 v70,2013-08-03 07:28:00,
2013-08-02 23:58:00,61.0,51.1,29.33,WSW,246,0.0,0.0,70,0.00,,,0.00,Weather View 32 v70,2013-08-03 07:58:00,